Location: Ar Men Alec
(48.3333°N, 4.8333°W)
Time: 09:17:03
(UTC+00:00)

Daily predictions for brighter satellites

Satellite Brightness Start Highest point End
(mag) Time Altitude Azimuth Time Altitude Azimuth Time Altitude Azimuth
Cosmos 1758 Rocket 3.7 17:40:23 10° N 17:44:44 54° ENE 17:49:01 10° SSE
Cosmos 371 Rocket 4.5 17:40:18 10° SW 17:44:55 44° WNW 17:49:35 10° NNE
CZ-4C R/B 4.1 17:40:24 10° NW 17:44:55 21° N 17:50:05 10° NE
Okean-O 3.7 17:42:33 10° ESE 17:46:09 25° ENE 17:49:46 10° N
CZ-4C R/B 4.5 17:44:57 10° N 17:47:58 37° WNW 17:51:02 10° SW
USA 306 3.8 17:44:31 10° WNW 17:48:33 38° N 17:52:34 10° ENE
Meteor 2-21 4.5 17:45:22 10° N 17:51:31 62° ENE 17:57:34 10° SSE
GRACE-FO 1 4.5 17:49:23 10° N 17:53:00 70° E 17:56:36 10° S
Cosmos 1818 3.9 17:47:55 10° SW 17:53:20 71° NW 17:58:49 10° NE
GRACE-FO 2 4.5 17:49:46 10° N 17:53:23 71° E 17:56:59 10° S
Cosmos 1943 Rocket 3.9 17:48:35 10° WSW 17:53:23 29° NW 17:58:11 10° NNE
CZ-4B R/B 3.9 17:51:41 10° S 17:57:15 63° WSW 18:02:47 10° NNW
Aureole 3 4.4 17:56:20 10° SE 17:58:14 15° E 18:00:02 10° NE
Cosmos 1331 Rocket 4.4 17:54:38 10° S 17:59:25 40° ESE 18:04:14 10° NE
Cosmos 1606 Rocket 3.9 17:55:40 10° SSE 17:59:45 42° E 18:03:54 10° NNE
Cosmos 2266 Rocket 4.1 17:55:04 10° N 18:01:18 85° W 18:07:35 10° S
SKYMED 2 4.1 17:58:10 10° NNE 18:02:14 37° E 18:06:16 10° SSE
Meteor 1-16 Rocket 4.4 17:57:13 10° SSW 18:02:54 79° WNW 18:08:25 10° N
ATLAS 5 CENTAUR R/B 3.2 17:59:36 10° W 18:03:23 30° NNW 18:07:39 10° NNE
Cosmos 2228 3.2 17:59:58 10° SSE 18:04:02 48° E 18:08:09 10° NNE
Cosmos 1953 3.6 18:00:51 10° SSW 18:04:37 43° WNW 18:08:26 10° N
SL-4 R/B 1.9 18:01:17 10° W 18:04:46 62° NNW 18:08:01 13° ENE
Cosmos 1908 3.5 18:02:33 10° SSW 18:06:23 74° W 18:10:16 10° N
Cosmos 292 Rocket 4.4 18:04:17 10° SSE 18:08:36 35° ESE 18:12:59 10° NE
CZ-2C R/B 3.8 18:03:39 10° SE 18:08:54 37° ENE 18:14:04 10° N
Cosmos 1346 Rocket 4.4 18:09:21 10° NNE 18:11:54 16° ENE 18:12:50 15° E
Cosmos 2227 Rocket 2.9 18:06:59 10° NNW 18:12:07 34° NE 18:17:08 10° ESE
ARGOS 4.3 18:09:44 10° ESE 18:13:56 24° ENE 18:18:09 10° N
Cosmos 1892 3.9 18:13:43 10° NNE 18:16:51 22° ENE 18:19:18 13° ESE
SeaSat 1 3.3 18:14:54 12° ESE 18:18:41 31° NE 18:23:00 10° NNW
CZ-2D R/B 3.3 18:16:38 10° SSE 18:20:22 54° ENE 18:24:06 10° N
Meteor 2-16 Rocket 4.4 18:15:36 10° N 18:21:41 68° ENE 18:27:44 10° SSE
Cosmos 2263 Rocket 4.1 18:20:01 10° N 18:22:13 12° NNE 18:24:14 10° NE
USA 215 3.8 18:17:28 14° E 18:22:48 47° NNE 18:28:58 10° WNW
ATLAS 2AS CENTAUR R/B 4.1 18:16:22 10° NW 18:22:49 27° NNE 18:27:53 14° ENE
Cosmos 968 Rocket 4.2 18:18:36 10° N 18:23:19 32° NE 18:26:57 15° ESE
COSMOS 2487 4.0 18:20:43 10° NW 18:23:58 38° WSW 18:27:10 10° S
Cosmos 1110 Rocket 3.9 18:19:47 10° SSW 18:25:00 73° ESE 18:30:14 10° NNE
Cosmos 2058 Rocket 3.5 18:22:11 10° SSE 18:26:22 40° E 18:30:35 10° NNE
Cosmos 1953 Rocket 3.5 18:22:12 10° N 18:26:36 74° E 18:31:02 10° SSE
CSL-04 Rocket 4.2 18:21:35 10° SE 18:26:39 38° ENE 18:31:43 10° N
CZ-4 R/B 4.4 18:22:34 10° SSE 18:26:42 70° ENE 18:30:52 10° N
Cosmos 1302 Rocket 4.5 18:23:09 10° S 18:27:57 38° ESE 18:32:48 10° NE
FALCON 9 DEB 4.4 18:26:06 10° S 18:28:37 21° SE 18:29:11 20° ESE
USA 307 3.7 18:26:26 10° WNW 18:30:30 40° N 18:32:53 21° ENE
Cosmos 1300 2.6 18:26:54 10° S 18:30:40 69° E 18:34:29 10° NNE
Cosmos 1697 Rocket 4.2 18:30:49 10° SE 18:32:53 16° ESE 18:32:53 16° ESE
USA 308 3.6 18:31:12 10° WNW 18:35:16 41° N 18:37:27 23° ENE
Helios 1A Rocket 2.8 18:34:01 10° SSE 18:38:09 84° ENE 18:42:17 10° NNW
GEOS 3 Rocket 3.6 18:36:45 12° SE 18:41:46 75° NE 18:47:11 10° NW
Timation 2 Rocket 4.1 18:35:45 10° NNW 18:42:22 89° SSW 18:49:09 10° SSE
S3M 4.4 18:38:09 10° SSE 18:43:41 37° E 18:49:16 10° NNE
Cosmos 1939 Rocket 3.5 18:41:59 10° S 18:45:55 57° W 18:49:48 10° NNW
PSLV R/B 3.9 18:42:03 10° NNE 18:46:17 87° ESE 18:50:26 10° SSW
Cosmos 1825 4.1 18:43:23 10° NNE 18:44:29 15° NNE 18:44:29 15° NNE
Cosmos 1689 Rocket 2.5 18:45:11 10° N 18:48:04 61° WNW 18:50:54 10° SSW
COSMO-SKYMED 1 2.8 18:46:02 10° N 18:50:23 73° WNW 18:54:43 10° SSW
NOSS 2-2 (C) 4.4 18:45:49 10° NW 18:51:14 82° NE 18:58:10 13° SE
Cosmos 1408 3.6 18:48:09 10° N 18:50:33 28° NE 18:50:33 28° NE
FALCON 9 DEB 4.1 18:48:32 10° WNW 18:51:44 36° N 18:52:39 30° NNE
Cosmos 2297 Rocket 2.1 18:47:09 10° NNW 18:52:51 72° ENE 18:57:46 14° SE
Cosmos 2369 Rocket 4.5 18:48:44 10° W 18:52:51 20° NW 18:57:00 10° N
In-Cosmos 22 Rocket 4.0 18:51:18 10° N 18:56:40 79° ENE 19:02:05 10° SSE
Cosmos 2058 3.1 18:53:29 10° N 18:57:26 44° ENE 18:57:59 41° E
MOS 1 Rocket 3.5 18:54:10 10° NNE 18:58:37 47° E 19:03:17 10° S
H-2A R/B 2.1 18:54:48 10° SSE 19:00:08 65° ENE 19:05:33 10° N
Cosmos 1340 2.6 18:57:28 10° NNW 19:01:16 85° W 19:05:02 10° S
SL-08 RB Rocket 4.4 19:03:11 34° NE 19:03:11 34° NE 19:06:52 10° N
CSL-04 Debris 4.1 18:57:46 10° SSE 19:03:11 74° ENE 19:08:39 10° NNW
CZ-4 R/B 1.7 18:59:50 10° S 19:03:43 65° WSW 19:07:35 10° NNW
Aureole 3 Rocket 3.0 19:01:27 10° S 19:05:10 84° W 19:10:18 10° N
YAOGAN 1 2.8 19:04:17 10° S 19:08:35 71° WSW 19:12:56 10° NNW
ERBS 4.3 19:08:02 10° NW 19:10:31 19° N 19:10:58 19° N
Cosmos 1076 Rocket 3.9 19:07:37 10° N 19:10:59 41° NE 19:10:59 41° NE
CZ-4B R/B 4.5 19:10:16 10° NNW 19:12:12 15° WNW 19:14:07 10° W
SJ-11-01 4.1 19:09:54 10° SSE 19:14:34 86° ENE 19:19:16 10° NNW
Cosmos 1553 Rocket 3.9 19:08:27 10° S 19:14:50 86° E 19:21:10 10° N
Lacrosse 5 3.2 19:11:48 10° WNW 19:16:18 31° N 19:18:09 24° NNE
Ariane Rocket 3.6 19:18:51 37° NE 19:18:51 37° NE 19:22:59 10° N
Cosmos 2219 3.4 19:12:34 10° NNW 19:18:20 73° WSW 19:23:22 14° SSE
Cosmos 1400 Rocket 3.3 19:14:27 10° SSW 19:18:32 63° WNW 19:22:37 10° N
BREEZE-M R/B 3.8 19:16:18 10° W 19:20:31 80° N 19:23:15 40° E
Geosat 3.9 19:17:12 15° NNE 19:21:27 89° WNW 19:26:28 10° SSW
Okean-O 3.9 19:18:14 10° S 19:22:26 41° W 19:26:39 10° NNW
USA 305 3.1 19:18:38 10° WNW 19:22:52 54° NNE 19:22:59 54° NNE
Cosmos 44 3.3 19:19:34 10° SW 19:24:04 71° NW 19:26:06 34° NNE
USA 306 3.1 19:24:53 10° WNW 19:28:58 56° N 19:28:58 56° N
Cosmos 2082 3.7 19:23:30 10° NNW 19:29:14 66° ENE 19:30:18 54° ESE
CZ-4C R/B 3.9 19:30:05 10° NW 19:35:41 28° NNE 19:37:16 26° NE
Cosmos 1745 Rocket 4.1 19:32:43 10° NNW 19:39:00 76° W 19:45:19 10° S
Meteor 2-1 Rocket 4.0 19:38:47 10° S 19:44:18 89° E 19:49:52 10° NNE
SL-4 R/B 3.1 19:41:06 10° WNW 19:43:36 37° NW 19:43:36 37° NW
Meteor 2-15 Rocket 4.4 19:40:25 10° S 19:46:34 88° W 19:52:46 10° N
Cosmos 1346 Rocket 3.6 19:44:42 10° NNW 19:48:23 50° W 19:48:23 50° W
ATLAS 5 CENTAUR R/B 4.1 19:46:52 10° NW 19:49:38 15° N 19:51:05 14° NNE
Cosmos 1892 4.5 19:49:06 10° NNW 19:52:35 32° W 19:54:22 21° SW
IRS-1A Rocket 4.2 19:53:01 71° NE 19:53:01 71° NE 19:58:13 10° NNW
NOSS 3-4 (A) 4.0 19:46:35 10° NW 19:53:12 50° NE 19:53:46 49° NE
NOSS 3-4 (C) 4.0 19:46:42 10° NW 19:53:18 50° NE 19:53:51 49° NE
ARGOS 3.5 19:50:40 26° S 19:53:46 63° WSW 19:59:11 10° NNW
SeaSat 1 3.1 19:54:43 40° SSW 19:56:01 51° WSW 20:00:51 10° NW
Cosmos 2227 Rocket 3.0 19:50:56 10° NW 19:56:22 49° WSW 19:59:00 28° SSW
Meteor 2-10 Rocket 3.9 19:52:10 10° SSW 19:57:29 63° WNW 20:02:37 10° N
NOSS 3-3 (A) 4.4 19:57:42 10° SSW 20:01:35 44° S 20:01:35 44° S
NOSS 3-3 (C) 4.4 19:57:47 10° SSW 20:01:43 44° S 20:01:43 44° S
MOS 1 4.4 20:05:51 67° N 20:05:51 67° N 20:10:46 10° NNW
USA 215 3.1 20:04:50 74° E 20:05:28 84° NNE 20:12:02 10° NW
Cosmos 1656 4.1 20:00:05 10° SW 20:05:34 59° WNW 20:07:51 34° N
Cosmos 2263 Rocket 3.4 20:02:25 10° NNW 20:05:55 32° N 20:05:55 32° N
Cosmos 1709 Rocket 4.0 20:02:50 10° NNW 20:09:13 79° W 20:10:33 57° SSW
USA 307 4.5 20:06:37 10° WNW 20:09:04 33° WNW 20:09:04 33° WNW
ATLAS 2AS CENTAUR R/B 3.1 20:08:06 10° NW 20:15:19 53° NNE 20:15:19 53° NNE
Cosmos 1697 Rocket 3.9 20:11:53 10° SSW 20:14:44 31° SSW 20:14:44 31° SSW
Cosmos 2297 Rocket 4.4 20:32:14 10° NW 20:36:17 20° W 20:39:39 12° SW
H-2A R/B 4.4 20:36:00 10° SW 20:40:01 21° W 20:44:05 10° NW
Lacrosse 5 4.1 20:55:32 10° NW 20:57:20 20° NW 20:57:20 20° NW
CZ-4C R/B 3.9 21:18:31 10° NW 21:22:26 37° NNW 21:22:26 37° NNW
